WR9G Weather Reports


Display with metric or nautical units.
time (UTC)temp
F
wind
direction
speed
MPH
gust
MPH
rain 1hr
in
rain 24hr
in
rain mn
in
humidity
%
barometer
mb
20260905195838 95 344 0.0 7.0 0.00 0.00 0.00 42 1011.1
20260905194838 96 295 0.0 5.0 0.00 0.00 0.00 43 1011.3
20260905192837 96 320 0.0 10.0 0.00 0.00 0.00 42 1011.5
20260905191836 96 294 0.0 0.0 0.00 0.00 0.00 42 1011.7
20260905190836 96 225 0.0 0.0 0.00 0.00 0.00 40 1011.9
20260905185836 95 211 0.0 0.0 0.00 0.00 0.00 43 1011.9
20260905184836 95 218 0.0 0.0 0.00 0.00 0.00 39 1012.2
20260905183835 95 227 0.0 0.0 0.00 0.00 0.00 42 1012.4
20260905182835 94 213 0.0 1.0 0.00 0.00 0.00 42 1012.3
20260905181835 94 276 0.0 4.0 0.00 0.00 0.00 42 1012.7
20260905180835 94 194 0.0 1.0 0.00 0.00 0.00 41 1012.8
20260905175834 94 201 0.0 2.0 0.00 0.00 0.00 41 1012.8
20260905174834 93 225 0.0 2.0 0.00 0.00 0.00 42 1012.8
20260905173834 93 210 0.0 6.0 0.00 0.00 0.00 43 1013.1
20260905172833 93 228 0.0 0.0 0.00 0.00 0.00 43 1013.1
20260905171834 92 223 0.0 0.0 0.00 0.00 0.00 45 1013.3
20260905170833 92 116 0.0 1.0 0.00 0.00 0.00 44 1013.3
20260905165833 91 170 0.0 6.0 0.00 0.00 0.00 43 1013.3
20260905164833 91 202 0.0 0.0 0.00 0.00 0.00 49 1013.5
20260905163832 90 141 0.0 0.0 0.00 0.00 0.00 47 1013.8
20260905161831 89 122 0.0 5.0 0.00 0.00 0.00 50 1013.8
20260905160831 88 228 0.0 10.0 0.00 0.00 0.00 48 1014.0
20260905155831 87 186 6.0 7.0 0.00 0.00 0.00 49 1014.0
20260905154830 87 215 0.0 10.0 0.00 0.00 0.00 53 1014.0
20260905153831 86 176 0.0 6.0 0.00 0.00 0.00 49 1013.9
20260905152830 86 206 0.0 7.0 0.00 0.00 0.00 50 1013.9
20260905150830 85 148 0.0 9.0 0.00 0.00 0.00 53 1014.2
20260905145829 85 154 0.0 3.0 0.00 0.00 0.00 54 1014.2
20260905144829 84 197 0.0 4.0 0.00 0.00 0.00 55 1014.4
20260905143828 82 192 0.0 0.0 0.00 0.00 0.00 60 1014.3
20260905142828 81 192 0.0 6.0 0.00 0.00 0.00 59 1014.3
20260905140827 79 193 0.0 6.0 0.00 0.00 0.00 64 1014.7
20260905135827 79 192 0.0 2.0 0.00 0.00 0.00 65 1014.7
20260905134827 78 118 0.0 4.0 0.00 0.00 0.00 67 1014.7
20260905133826 77 191 0.0 4.0 0.00 0.00 0.00 70 1015.1
20260905132826 77 166 0.0 4.0 0.00 0.00 0.00 70 1015.1
20260905131826 77 172 0.0 6.0 0.00 0.00 0.00 71 1015.2
20260905130825 76 175 1.0 1.0 0.00 0.00 0.00 74 1015.2
20260905125825 76 133 0.0 3.0 0.00 0.00 0.00 76 1015.2
20260905124825 76 176 1.0 4.0 0.00 0.00 0.00 77 1015.3
20260905123824 76 139 0.0 4.0 0.00 0.00 0.00 80 1015.3
20260905122824 76 265 0.0 4.0 0.00 0.00 0.00 82 1015.3
20260905121824 76 270 0.0 1.0 0.00 0.00 0.00 87 1015.0
20260905115824 75 72 0.0 9.0 0.00 0.00 0.00 91 1014.8
20260905114823 75 184 0.0 0.0 0.00 0.00 0.00 92 1013.6
20260905113823 75 184 0.0 0.0 0.00 0.00 0.00 92 1013.3
20260905112822 75 184 0.0 0.0 0.00 0.00 0.00 91 1013.3
20260905111822 75 177 0.0 0.0 0.00 0.00 0.00 91 1013.2
20260905110822 76 170 0.0 0.0 0.00 0.00 0.00 90 1012.9
20260905105822 76 167 0.0 1.0 0.00 0.00 0.00 91 1012.9
20260905102821 75 311 0.0 0.0 0.00 0.00 0.00 95 1013.4
20260905101820 75 271 0.0 0.0 0.00 0.00 0.00 95 1013.2
20260905100821 75 271 0.0 0.0 0.00 0.00 0.00 95 1013.0
20260905095849 75 271 0.0 0.0 0.00 0.00 0.00 95 1013.0
20260905094819 75 271 0.0 0.0 0.00 0.00 0.00 95 1012.9
20260905093819 75 271 0.0 0.0 0.00 0.00 0.00 94 1012.9
20260905092819 75 271 0.0 0.0 0.00 0.00 0.00 94 1012.9
20260905091820 75 271 0.0 0.0 0.00 0.00 0.00 94 1012.5
20260905090818 75 271 0.0 0.0 0.00 0.00 0.00 94 1012.3
20260905085848 75 271 0.0 0.0 0.00 0.00 0.00 94 1012.3
20260905083817 75 271 0.0 0.0 0.00 0.00 0.00 96 1012.5
20260905082847 75 271 0.0 0.0 0.00 0.00 0.00 96 1012.5
20260905081846 75 271 0.0 0.0 0.00 0.00 0.00 96 1012.5
20260905080846 76 271 0.0 0.0 0.00 0.00 0.00 97 1012.1
20260905075846 76 271 0.0 0.0 0.00 0.00 0.00 97 1012.1
20260905074846 76 271 0.0 0.0 0.00 0.00 0.00 97 1012.3
20260905071845 75 273 0.0 0.0 0.00 0.00 0.00 96 1012.6
20260905070845 75 273 0.0 0.0 0.00 0.00 0.00 96 1012.6
20260905065844 75 273 0.0 0.0 0.00 0.00 0.00 96 1012.6
20260905064844 76 273 0.0 0.0 0.00 0.00 0.00 96 1012.8
20260905063844 76 273 0.0 0.0 0.00 0.00 0.00 95 1012.9
20260905062843 76 273 0.0 0.0 0.00 0.00 0.00 95 1012.9
20260905061844 76 273 0.0 0.0 0.00 0.00 0.00 95 1013.0
20260905055842 76 273 0.0 0.0 0.00 0.00 0.00 94 1013.3
20260905054842 76 273 0.0 0.0 0.00 0.00 0.00 94 1013.2
20260905053842 76 273 0.0 0.0 0.00 0.00 0.00 94 1013.4
20260905052842 77 273 0.0 0.0 0.00 0.00 0.00 94 1013.4
20260905043840 77 273 0.0 0.0 0.00 0.00 0.00 93 1013.4
20260905041839 78 273 0.0 0.0 0.00 0.00 0.00 92 1013.4
20260905040839 78 273 0.0 0.0 0.00 0.00 0.00 92 1013.5
20260905035838 78 273 0.0 0.0 0.00 0.00 0.00 92 1013.5
20260905034838 78 273 0.0 0.0 0.00 0.00 0.00 92 1013.5
20260905033838 78 273 0.0 0.0 0.00 0.00 0.00 92 1013.5
20260905032837 79 273 0.0 0.0 0.00 0.00 0.00 92 1013.5
20260905031837 79 273 0.0 0.0 0.00 0.00 0.00 90 1013.4
20260905025837 79 273 0.0 0.0 0.00 0.00 0.00 89 1013.4
20260905024836 79 273 0.0 0.0 0.00 0.00 0.00 89 1013.3
20260905023836 80 273 0.0 0.0 0.00 0.00 0.00 88 1013.4
20260905022836 80 273 0.0 0.0 0.00 0.00 0.00 88 1013.4
20260905021836 80 273 0.0 0.0 0.00 0.00 0.00 87 1013.4
20260905020836 81 273 0.0 0.0 0.00 0.00 0.00 85 1013.2
20260905014835 81 273 0.0 0.0 0.00 0.00 0.00 84 1013.0
20260905013834 82 273 0.0 0.0 0.00 0.00 0.00 83 1012.8
20260905012834 82 273 0.0 0.0 0.00 0.00 0.00 82 1012.8
20260905005833 84 273 0.0 0.0 0.00 0.00 0.00 76 1012.7
20260905004833 85 273 0.0 0.0 0.00 0.00 0.00 75 1012.4
20260905003833 86 273 0.0 0.0 0.00 0.00 0.00 71 1012.1
20260905002832 87 273 0.0 0.0 0.00 0.00 0.00 71 1012.2
20260905001832 88 273 0.0 0.0 0.00 0.00 0.00 69 1012.2
20260905000832 89 273 0.0 0.0 0.00 0.00 0.00 64 1012.1
20260904235832 90 273 0.0 0.0 0.00 0.00 0.00 62 1012.1
20260904232831 94 273 0.0 0.0 0.00 0.00 0.00 54 1012.1
20260904231830 96 273 0.0 0.0 0.00 0.00 0.00 55 1012.3
20260904225830 97 272 0.0 0.0 0.00 0.00 0.00 50 1012.3
20260904224830 98 272 0.0 0.0 0.00 0.00 0.00 46 1012.4
20260904223829 98 272 0.0 0.0 0.00 0.00 0.00 44 1012.6
20260904222829 98 272 0.0 0.0 0.00 0.00 0.00 44 1012.6
20260904221828 98 273 0.0 0.0 0.00 0.00 0.00 43 1012.8
20260904220828 98 273 0.0 0.0 0.00 0.00 0.00 43 1012.8
20260904215828 98 281 0.0 0.0 0.00 0.00 0.00 43 1012.8
20260904214828 98 258 0.0 0.0 0.00 0.00 0.00 44 1012.8
20260904213828 99 274 0.0 0.0 0.00 0.00 0.00 41 1012.8
20260904211827 99 266 0.0 0.0 0.00 0.00 0.00 40 1012.8
20260904210826 98 274 0.0 7.0 0.00 0.00 0.00 40 1012.8
20260904205826 99 249 0.0 1.0 0.00 0.00 0.00 41 1012.8
20260904204825 98 337 0.0 5.0 0.00 0.00 0.00 40 1012.9
20260904203825 98 286 0.0 5.0 0.00 0.00 0.00 42 1013.2
20260904202825 99 257 0.0 5.0 0.00 0.00 0.00 42 1013.2
20260904201825 99 275 5.0 6.0 0.00 0.00 0.00 42 1013.4
20260904200825 98 278 0.0 9.0 0.00 0.00 0.00 42 1013.4